QPF
0.00 0.00 0.00 0.00 0.01 0.02 0.02 0.01 0.01 0.01 0.01 0.01 0.01 0.01 0.01 0.01 0.02 0.03 0.03 0.03 0.03 0.04 0.09 0.17 0.29 0.35 0.35 0.40 0.45 0.45 0.41 0.34 0.31 0.29 0.23 0.19 0.17 0.16 0.14 0.12 0.10 0.08 0.07
0.00 0.00 0.00 0.00 0.00 0.01 0.01 0.01 0.01 0.01 0.01 0.01 0.00 0.00 0.00 0.00 0.01 0.01 0.02 0.02 0.02 0.03 0.07 0.14 0.19 0.23 0.27 0.30 0.35 0.39 0.38 0.34 0.29 0.26 0.22 0.17 0.16 0.15 0.10 0.11 0.09 0.07 0.06
0.00 0.00 0.00 0.00 0.00 0.00 0.00 0.00 0.00 0.00 0.00 0.00 0.00 0.00 0.00 0.00 0.00 0.01 0.01 0.01 0.01 0.02 0.05 0.12 0.17 0.20 0.24 0.26 0.27 0.26 0.27 0.28 0.26 0.22 0.18 0.14 0.11 0.11 0.09 0.06 0.04 0.03 0.04
0.00 0.00 0.00 0.00 0.00 0.00 0.00 0.00 0.00 0.00 0.00 0.00 0.00 0.00 0.00 0.00 0.00 0.00 0.00 0.00 0.00 0.01 0.02 0.06 0.10 0.16 0.22 0.28 0.27 0.26 0.25 0.23 0.21 0.19 0.15 0.10 0.09 0.09 0.09 0.07 0.03 0.02 0.02
0.00 0.00 0.00 0.00 0.00 0.00 0.00 0.00 0.00 0.00 0.00 0.00 0.00 0.00 0.00 0.00 0.00 0.00 0.00 0.00 0.00 0.00 0.01 0.02 0.04 0.08 0.13 0.17 0.21 0.27 0.28 0.26 0.21 0.19 0.18 0.14 0.09 0.06 0.08 0.10 0.07 0.03 0.01
0.00 0.00 0.00 0.00 0.00 0.00 0.00 0.00 0.00 0.00 0.00 0.00 0.00 0.00 0.01 0.01 0.00 0.00 0.00 0.00 0.00 0.00 0.00 0.00 0.01 0.02 0.05 0.08 0.12 0.17 0.22 0.26 0.25 0.20 0.20 0.20 0.16 0.07 0.05 0.05 0.06 0.05 0.01
0.00 0.00 0.00 0.00 0.00 0.00 0.00 0.00 0.00 0.00 0.00 0.00 0.00 0.00 0.01 0.01 0.01 0.00 0.00 0.00 0.00 0.00 0.00 0.00 0.00 0.01 0.02 0.03 0.06 0.09 0.16 0.22 0.26 0.25 0.22 0.19 0.15 0.10 0.06 0.04 0.02 0.02 0.02
0.00 0.00 0.00 0.00 0.00 0.00 0.00 0.00 0.00 0.00 0.00 0.00 0.00 0.00 0.00 0.00 0.00 0.00 0.00 0.00 0.00 0.00 0.00 0.00 0.00 0.00 0.01 0.02 0.02 0.04 0.07 0.13 0.19 0.24 0.28 0.25 0.16 0.13 0.11 0.06 0.04 0.05 0.05
0.00 0.00 0.00 0.00 0.00 0.00 0.00 0.00 0.00 0.00 0.00 0.00 0.00 0.00 0.00 0.00 0.00 0.00 0.00 0.00 0.00 0.00 0.00 0.00 0.00 0.00 0.00 0.01 0.01 0.02 0.03 0.06 0.11 0.16 0.23 0.26 0.23 0.17 0.14 0.10 0.07 0.07 0.07
0.00 0.00 0.00 0.00 0.00 0.00 0.00 0.00 0.00 0.00 0.00 0.00 0.00 0.00 0.00 0.00 0.00 0.00 0.00 0.00 0.00 0.00 0.00 0.00 0.00 0.00 0.00 0.01 0.01 0.01 0.02 0.04 0.06 0.10 0.16 0.22 0.25 0.24 0.19 0.16 0.11 0.07 0.07
0.00 0.00 0.00 0.00 0.00 0.00 0.00 0.00 0.00 0.00 0.00 0.00 0.00 0.00 0.00 0.00 0.00 0.00 0.00 0.00 0.00 0.01 0.00 0.00 0.00 0.00 0.00 0.01 0.01 0.01 0.01 0.02 0.04 0.07 0.11 0.16 0.22 0.27 0.28 0.22 0.17 0.13 0.10
0.00 0.00 0.00 0.00 0.00 0.00 0.00 0.00 0.00 0.00 0.00 0.00 0.00 0.00 0.00 0.00 0.00 0.00 0.00 0.01 0.01 0.01 0.01 0.01 0.01 0.01 0.00 0.01 0.01 0.01 0.01 0.01 0.02 0.04 0.08 0.13 0.19 0.23 0.28 0.30 0.26 0.20 0.18
0.00 0.00 0.00 0.00 0.00 0.00 0.00 0.00 0.00 0.00 0.00 0.00 0.00 0.00 0.00 0.00 0.01 0.01 0.01 0.01 0.01 0.01 0.01 0.01 0.01 0.02 0.01 0.01 0.01 0.01 0.01 0.01 0.02 0.02 0.04 0.08 0.14 0.20 0.25 0.30 0.32 0.28 0.25
0.00 0.00 0.00 0.00 0.00 0.00 0.00 0.00 0.00 0.00 0.00 0.00 0.00 0.00 0.01 0.01 0.01 0.01 0.01 0.01 0.01 0.02 0.02 0.02 0.02 0.02 0.02 0.02 0.01 0.01 0.02 0.02 0.01 0.02 0.03 0.05 0.08 0.13 0.21 0.27 0.32 0.36 0.36
0.00 0.00 0.00 0.00 0.00 0.00 0.00 0.00 0.00 0.00 0.00 0.01 0.01 0.01 0.01 0.01 0.01 0.01 0.01 0.02 0.02 0.02 0.03 0.03 0.04 0.04 0.03 0.02 0.02 0.03 0.02 0.03 0.02 0.02 0.02 0.03 0.06 0.09 0.13 0.21 0.29 0.35 0.39
0.00 0.00 0.00 0.00 0.00 0.00 0.00 0.00 0.00 0.01 0.01 0.01 0.01 0.01 0.01 0.01 0.01 0.02 0.02 0.03 0.03 0.04 0.05 0.05 0.05 0.05 0.03 0.02 0.03 0.03 0.03 0.04 0.05 0.04 0.03 0.02 0.03 0.06 0.09 0.13 0.21 0.30 0.36
0.00 0.00 0.00 0.00 0.00 0.00 0.00 0.00 0.01 0.01 0.01 0.01 0.01 0.01 0.01 0.02 0.02 0.02 0.02 0.04 0.05 0.06 0.06 0.06 0.06 0.07 0.06 0.04 0.04 0.04 0.04 0.06 0.08 0.08 0.07 0.03 0.01 0.03 0.05 0.07 0.11 0.18 0.25
0.00 0.00 0.00 0.00 0.00 0.00 0.00 0.00 0.00 0.01 0.01 0.01 0.02 0.01 0.02 0.02 0.02 0.03 0.04 0.06 0.07 0.07 0.08 0.07 0.08 0.10 0.08 0.06 0.04 0.04 0.04 0.06 0.08 0.09 0.09 0.07 0.05 0.04 0.04 0.05 0.06 0.09 0.14
0.00 0.00 0.00 0.00 0.00 0.00 0.00 0.01 0.01 0.01 0.01 0.02 0.02 0.02 0.02 0.02 0.03 0.04 0.06 0.07 0.08 0.08 0.09 0.10 0.11 0.13 0.13 0.10 0.05 0.04 0.05 0.07 0.07 0.08 0.09 0.09 0.07 0.05 0.03 0.05 0.06 0.06 0.09
0.00 0.00 0.00 0.00 0.01 0.01 0.01 0.01 0.01 0.01 0.02 0.02 0.02 0.02 0.03 0.03 0.04 0.05 0.06 0.07 0.08 0.08 0.09 0.09 0.11 0.13 0.15 0.11 0.04 0.03 0.06 0.09 0.09 0.11 0.11 0.08 0.08 0.07 0.03 0.03 0.05 0.06 0.07
0.00 0.00 0.00 0.00 0.01 0.01 0.01 0.01 0.01 0.02 0.02 0.02 0.02 0.02 0.03 0.04 0.05 0.06 0.07 0.08 0.08 0.08 0.08 0.09 0.11 0.14 0.13 0.09 0.03 0.02 0.06 0.11 0.13 0.13 0.13 0.10 0.06 0.04 0.02 0.02 0.04 0.05 0.08
0.00 0.00 0.00 0.00 0.01 0.01 0.02 0.02 0.02 0.02 0.02 0.02 0.02 0.02 0.03 0.04 0.04 0.07 0.08 0.09 0.09 0.09 0.09 0.10 0.10 0.13 0.12 0.08 0.04 0.01 0.02 0.07 0.15 0.18 0.17 0.14 0.09 0.03 0.01 0.01 0.01 0.02 0.05
0.00 0.00 0.00 0.00 0.01 0.01 0.02 0.02 0.02 0.02 0.02 0.02 0.02 0.02 0.03 0.05 0.07 0.09 0.10 0.10 0.11 0.11 0.10 0.10 0.11 0.12 0.13 0.10 0.03 0.01 0.01 0.02 0.08 0.17 0.17 0.13 0.08 0.04 0.02 0.01 0.01 0.01 0.02
0.00 0.00 0.00 0.00 0.01 0.01 0.01 0.02 0.02 0.02 0.02 0.01 0.01 0.02 0.03 0.05 0.08 0.11 0.11 0.11 0.11 0.10 0.09 0.10 0.12 0.13 0.14 0.15 0.10 0.05 0.03 0.02 0.04 0.10 0.11 0.08 0.05 0.03 0.02 0.01 0.00 0.01 0.01
0.00 0.00 0.00 0.01 0.01 0.01 0.01 0.01 0.01 0.01 0.01 0.01 0.01 0.02 0.04 0.06 0.09 0.11 0.12 0.08 0.07 0.04 0.03 0.05 0.09 0.11 0.13 0.11 0.08 0.10 0.12 0.09 0.07 0.09 0.13 0.10 0.06 0.04 0.03 0.02 0.01 0.01 0.01
0.00 0.00 0.00 0.00 0.00 0.01 0.01 0.01 0.01 0.01 0.02 0.02 0.02 0.02 0.03 0.06 0.09 0.12 0.13 0.09 0.03 0.01 0.01 0.01 0.02 0.04 0.05 0.04 0.02 0.02 0.03 0.03 0.03 0.06 0.14 0.13 0.10 0.06 0.04 0.03 0.03 0.03 0.03
MSLP
1012.46 1012.56 1012.55 1012.44 1012.28 1012.12 1012.01 1011.97 1012.01 1012.09 1012.19 1012.24 1012.23 1012.12 1011.92 1011.66 1011.39 1011.14 1010.97 1010.88 1010.87 1010.91 1010.96 1010.96 1010.89 1010.73 1010.49 1010.19 1009.89 1009.63 1009.46 1009.40 1009.44 1009.57 1009.73 1009.89 1009.99 1010.02 1009.96 1009.85 1009.72 1009.61 1009.58
1011.84 1012.00 1012.07 1012.04 1011.95 1011.85 1011.79 1011.80 1011.89 1012.04 1012.21 1012.34 1012.39 1012.32 1012.13 1011.83 1011.48 1011.13 1010.85 1010.65 1010.57 1010.57 1010.63 1010.70 1010.72 1010.67 1010.54 1010.33 1010.09 1009.85 1009.66 1009.54 1009.51 1009.53 1009.58 1009.62 1009.61 1009.53 1009.37 1009.16 1008.95 1008.77 1008.68
1011.14 1011.35 1011.49 1011.55 1011.55 1011.52 1011.52 1011.59 1011.74 1011.95 1012.18 1012.38 1012.48 1012.45 1012.26 1011.94 1011.53 1011.10 1010.71 1010.42 1010.26 1010.22 1010.27 1010.38 1010.47 1010.52 1010.48 1010.37 1010.20 1010.01 1009.82 1009.67 1009.57 1009.51 1009.47 1009.40 1009.30 1009.12 1008.88 1008.59 1008.31 1008.07 1007.94
1010.51 1010.76 1010.98 1011.12 1011.20 1011.25 1011.31 1011.42 1011.60 1011.85 1012.12 1012.36 1012.50 1012.49 1012.32 1011.99 1011.55 1011.06 1010.60 1010.23 1009.99 1009.90 1009.93 1010.04 1010.17 1010.28 1010.32 1010.29 1010.19 1010.05 1009.88 1009.73 1009.60 1009.50 1009.39 1009.26 1009.09 1008.84 1008.54 1008.20 1007.87 1007.59 1007.43
1010.05 1010.34 1010.63 1010.84 1010.99 1011.09 1011.18 1011.31 1011.50 1011.75 1012.02 1012.27 1012.43 1012.45 1012.31 1011.99 1011.54 1011.03 1010.52 1010.09 1009.79 1009.63 1009.62 1009.70 1009.83 1009.97 1010.06 1010.08 1010.04 1009.95 1009.83 1009.70 1009.58 1009.47 1009.34 1009.18 1008.97 1008.70 1008.37 1008.01 1007.65 1007.35 1007.16
1009.80 1010.14 1010.48 1010.75 1010.95 1011.07 1011.17 1011.28 1011.43 1011.65 1011.89 1012.12 1012.29 1012.33 1012.21 1011.92 1011.50 1010.99 1010.48 1010.01 1009.66 1009.44 1009.36 1009.39 1009.49 1009.61 1009.71 1009.77 1009.77 1009.73 1009.66 1009.57 1009.48 1009.39 1009.27 1009.13 1008.92 1008.65 1008.33 1007.97 1007.61 1007.31 1007.11
1009.74 1010.12 1010.51 1010.82 1011.04 1011.17 1011.24 1011.30 1011.39 1011.53 1011.72 1011.91 1012.06 1012.11 1012.02 1011.78 1011.41 1010.94 1010.44 1009.97 1009.58 1009.31 1009.16 1009.12 1009.16 1009.23 1009.31 1009.37 1009.39 1009.39 1009.36 1009.33 1009.28 1009.23 1009.16 1009.05 1008.88 1008.64 1008.34 1008.01 1007.68 1007.40 1007.20
1009.83 1010.24 1010.66 1011.00 1011.22 1011.32 1011.34 1011.34 1011.35 1011.40 1011.51 1011.64 1011.76 1011.81 1011.75 1011.56 1011.25 1010.84 1010.38 1009.93 1009.52 1009.21 1008.99 1008.88 1008.85 1008.86 1008.89 1008.92 1008.95 1008.96 1008.96 1008.97 1008.98 1008.98 1008.96 1008.89 1008.77 1008.59 1008.34 1008.06 1007.77 1007.53 1007.36
1009.98 1010.43 1010.86 1011.21 1011.41 1011.48 1011.45 1011.37 1011.29 1011.25 1011.27 1011.33 1011.41 1011.45 1011.41 1011.27 1011.02 1010.67 1010.27 1009.85 1009.45 1009.11 1008.85 1008.67 1008.55 1008.50 1008.47 1008.46 1008.46 1008.47 1008.50 1008.53 1008.58 1008.62 1008.64 1008.63 1008.56 1008.44 1008.25 1008.03 1007.81 1007.61 1007.49
1010.16 1010.63 1011.07 1011.40 1011.58 1011.61 1011.53 1011.38 1011.22 1011.09 1011.03 1011.02 1011.04 1011.05 1011.02 1010.92 1010.72 1010.43 1010.08 1009.70 1009.32 1008.98 1008.68 1008.45 1008.28 1008.15 1008.06 1008.01 1007.97 1007.96 1007.98 1008.02 1008.09 1008.15 1008.21 1008.24 1008.22 1008.15 1008.03 1007.88 1007.72 1007.60 1007.53
1010.35 1010.81 1011.23 1011.54 1011.69 1011.69 1011.56 1011.36 1011.14 1010.94 1010.81 1010.73 1010.69 1010.67 1010.62 1010.52 1010.35 1010.11 1009.80 1009.46 1009.11 1008.78 1008.48 1008.21 1008.00 1007.82 1007.68 1007.57 1007.49 1007.45 1007.44 1007.47 1007.52 1007.60 1007.67 1007.73 1007.75 1007.73 1007.67 1007.59 1007.50 1007.45 1007.46
1010.55 1010.98 1011.36 1011.62 1011.73 1011.70 1011.54 1011.31 1011.05 1010.82 1010.62 1010.48 1010.39 1010.32 1010.23 1010.11 1009.95 1009.72 1009.44 1009.13 1008.81 1008.49 1008.19 1007.93 1007.68 1007.47 1007.29 1007.13 1007.01 1006.92 1006.88 1006.88 1006.92 1006.98 1007.05 1007.12 1007.18 1007.20 1007.20 1007.18 1007.17 1007.19 1007.27
1010.76 1011.14 1011.45 1011.65 1011.72 1011.66 1011.48 1011.24 1010.97 1010.71 1010.48 1010.29 1010.14 1010.01 1009.87 1009.71 1009.51 1009.28 1009.00 1008.71 1008.41 1008.11 1007.82 1007.55 1007.30 1007.07 1006.86 1006.67 1006.51 1006.38 1006.30 1006.26 1006.27 1006.31 1006.38 1006.46 1006.54 1006.61 1006.66 1006.71 1006.77 1006.86 1007.00
1010.98 1011.27 1011.50 1011.63 1011.64 1011.55 1011.37 1011.14 1010.87 1010.61 1010.36 1010.14 1009.94 1009.74 1009.54 1009.32 1009.07 1008.79 1008.50 1008.20 1007.91 1007.62 1007.34 1007.08 1006.83 1006.59 1006.36 1006.14 1005.95 1005.79 1005.67 1005.60 1005.58 1005.61 1005.68 1005.78 1005.88 1005.99 1006.10 1006.21 1006.33 1006.47 1006.67
1011.19 1011.37 1011.49 1011.54 1011.50 1011.38 1011.20 1010.98 1010.73 1010.49 1010.24 1010.00 1009.75 1009.50 1009.23 1008.93 1008.62 1008.29 1007.96 1007.63 1007.32 1007.03 1006.75 1006.49 1006.24 1006.00 1005.76 1005.52 1005.31 1005.12 1004.98 1004.89 1004.86 1004.89 1004.97 1005.09 1005.24 1005.40 1005.56 1005.72 1005.90 1006.09 1006.31
1011.32 1011.39 1011.41 1011.36 1011.27 1011.12 1010.94 1010.74 1010.53 1010.31 1010.08 1009.83 1009.56 1009.25 1008.92 1008.55 1008.17 1007.77 1007.38 1007.01 1006.67 1006.35 1006.07 1005.80 1005.54 1005.29 1005.04 1004.80 1004.57 1004.37 1004.22 1004.13 1004.11 1004.15 1004.26 1004.42 1004.62 1004.83 1005.06 1005.28 1005.49 1005.72 1005.96
1011.34 1011.31 1011.22 1011.09 1010.94 1010.77 1010.60 1010.42 1010.24 1010.06 1009.85 1009.61 1009.32 1008.99 1008.60 1008.17 1007.72 1007.25 1006.80 1006.38 1005.99 1005.64 1005.32 1005.03 1004.76 1004.50 1004.24 1003.99 1003.77 1003.57 1003.43 1003.35 1003.35 1003.43 1003.58 1003.79 1004.05 1004.32 1004.60 1004.88 1005.14 1005.38 1005.63
1011.22 1011.09 1010.92 1010.72 1010.52 1010.33 1010.16 1010.01 1009.87 1009.72 1009.55 1009.33 1009.04 1008.68 1008.26 1007.78 1007.27 1006.75 1006.23 1005.75 1005.31 1004.91 1004.56 1004.24 1003.96 1003.68 1003.42 1003.17 1002.95 1002.77 1002.65 1002.60 1002.64 1002.76 1002.96 1003.23 1003.54 1003.87 1004.20 1004.52 1004.81 1005.08 1005.32
1010.95 1010.76 1010.52 1010.28 1010.05 1009.85 1009.69 1009.56 1009.45 1009.34 1009.19 1008.99 1008.71 1008.35 1007.91 1007.39 1006.83 1006.26 1005.69 1005.15 1004.66 1004.22 1003.84 1003.50 1003.19 1002.91 1002.65 1002.42 1002.22 1002.06 1001.97 1001.96 1002.04 1002.20 1002.45 1002.76 1003.11 1003.48 1003.85 1004.20 1004.51 1004.79 1005.04
1010.59 1010.36 1010.09 1009.81 1009.57 1009.37 1009.22 1009.11 1009.03 1008.94 1008.82 1008.63 1008.36 1007.99 1007.53 1007.00 1006.40 1005.79 1005.18 1004.60 1004.08 1003.61 1003.20 1002.84 1002.53 1002.26 1002.01 1001.81 1001.64 1001.52 1001.47 1001.49 1001.60 1001.80 1002.06 1002.40 1002.77 1003.16 1003.54 1003.90 1004.23 1004.51 1004.76
1010.20 1009.95 1009.67 1009.39 1009.15 1008.95 1008.81 1008.72 1008.65 1008.58 1008.46 1008.28 1008.00 1007.63 1007.15 1006.59 1005.98 1005.34 1004.70 1004.10 1003.55 1003.07 1002.66 1002.31 1002.02 1001.78 1001.57 1001.40 1001.28 1001.21 1001.19 1001.24 1001.37 1001.57 1001.84 1002.16 1002.52 1002.89 1003.26 1003.61 1003.93 1004.21 1004.47
1009.84 1009.60 1009.33 1009.06 1008.83 1008.65 1008.52 1008.43 1008.36 1008.28 1008.16 1007.96 1007.66 1007.26 1006.77 1006.18 1005.55 1004.89 1004.24 1003.64 1003.09 1002.62 1002.23 1001.92 1001.67 1001.48 1001.33 1001.23 1001.16 1001.13 1001.15 1001.22 1001.34 1001.52 1001.76 1002.03 1002.34 1002.66 1002.99 1003.30 1003.59 1003.87 1004.14
1009.54 1009.33 1009.09 1008.85 1008.65 1008.48 1008.35 1008.26 1008.18 1008.07 1007.91 1007.67 1007.34 1006.90 1006.37 1005.76 1005.10 1004.43 1003.78 1003.18 1002.66 1002.23 1001.89 1001.64 1001.46 1001.35 1001.28 1001.24 1001.23 1001.25 1001.29 1001.37 1001.47 1001.61 1001.78 1001.98 1002.21 1002.45 1002.70 1002.95 1003.21 1003.47 1003.74
1009.32 1009.15 1008.95 1008.75 1008.57 1008.42 1008.29 1008.19 1008.08 1007.93 1007.72 1007.42 1007.03 1006.53 1005.95 1005.30 1004.62 1003.94 1003.30 1002.73 1002.25 1001.87 1001.60 1001.43 1001.34 1001.31 1001.33 1001.37 1001.42 1001.48 1001.54 1001.61 1001.67 1001.75 1001.84 1001.94 1002.07 1002.21 1002.37 1002.55 1002.76 1003.00 1003.27
1009.15 1009.02 1008.86 1008.70 1008.55 1008.42 1008.30 1008.17 1008.02 1007.82 1007.54 1007.17 1006.71 1006.15 1005.51 1004.82 1004.11 1003.42 1002.80 1002.26 1001.83 1001.51 1001.32 1001.24 1001.24 1001.30 1001.40 1001.52 1001.63 1001.72 1001.78 1001.82 1001.84 1001.85 1001.85 1001.85 1001.87 1001.91 1001.98 1002.08 1002.24 1002.45 1002.71
1008.96 1008.88 1008.77 1008.65 1008.53 1008.41 1008.29 1008.14 1007.95 1007.69 1007.35 1006.91 1006.37 1005.75 1005.05 1004.32 1003.59 1002.90 1002.29 1001.79 1001.41 1001.16 1001.04 1001.04 1001.12 1001.26 1001.42 1001.59 1001.73 1001.84 1001.89 1001.90 1001.87 1001.81 1001.73 1001.64 1001.56 1001.52 1001.51 1001.55 1001.66 1001.84 1002.09
Thickness
5755 5755 5753 5751 5747 5743 5739 5736 5732 5730 5727 5724 5721 5720 5719 5719 5719 5719 5716 5713 5711 5709 5708 5709 5711 5711 5711 5711 5711 5711 5710 5710 5713 5711 5713 5719 5725 5728 5730 5733 5735 5738 5740
5748 5747 5745 5744 5739 5734 5731 5729 5725 5721 5718 5715 5712 5712 5711 5711 5711 5710 5707 5705 5702 5701 5700 5699 5700 5701 5702 5703 5704 5704 5703 5704 5707 5705 5703 5705 5713 5722 5729 5730 5732 5737 5740
5744 5742 5740 5737 5734 5729 5726 5723 5717 5714 5710 5706 5704 5702 5700 5700 5699 5698 5697 5696 5694 5692 5691 5690 5691 5691 5692 5693 5696 5697 5696 5695 5699 5702 5701 5700 5703 5714 5724 5728 5731 5735 5737
5744 5740 5736 5732 5728 5725 5723 5717 5712 5707 5702 5697 5692 5688 5685 5684 5685 5685 5685 5685 5685 5684 5683 5682 5681 5682 5683 5683 5686 5689 5689 5689 5690 5695 5701 5704 5706 5705 5710 5719 5728 5732 5734
5742 5736 5733 5728 5725 5721 5717 5711 5705 5699 5694 5689 5684 5679 5676 5674 5674 5673 5673 5674 5675 5675 5675 5674 5673 5672 5672 5674 5676 5678 5680 5681 5683 5686 5690 5695 5700 5704 5703 5704 5714 5722 5729
5740 5735 5731 5726 5720 5716 5710 5705 5697 5690 5685 5680 5675 5671 5667 5664 5662 5661 5661 5663 5666 5667 5667 5666 5664 5663 5663 5663 5665 5667 5670 5672 5675 5680 5684 5685 5688 5694 5698 5700 5705 5710 5720
5738 5731 5725 5720 5714 5709 5703 5697 5690 5682 5677 5672 5667 5663 5659 5656 5654 5654 5655 5654 5654 5654 5655 5655 5654 5654 5653 5654 5655 5657 5659 5662 5665 5670 5675 5679 5683 5690 5694 5697 5701 5707 5715
5736 5729 5723 5717 5709 5703 5696 5689 5682 5675 5670 5664 5660 5655 5652 5649 5648 5647 5645 5643 5643 5644 5645 5645 5645 5645 5645 5645 5646 5647 5649 5653 5656 5660 5665 5670 5676 5682 5687 5692 5695 5696 5703
5733 5727 5720 5712 5704 5696 5689 5682 5675 5668 5663 5658 5653 5650 5647 5643 5640 5637 5636 5636 5636 5636 5636 5635 5634 5635 5635 5636 5636 5637 5639 5642 5645 5650 5654 5660 5666 5672 5679 5685 5690 5690 5689
5728 5720 5712 5705 5698 5690 5683 5676 5669 5662 5657 5652 5647 5643 5639 5635 5632 5630 5628 5626 5625 5625 5625 5625 5624 5624 5625 5626 5627 5627 5630 5632 5635 5639 5643 5649 5655 5662 5669 5675 5681 5687 5688
5720 5713 5706 5699 5691 5683 5676 5668 5661 5655 5649 5644 5639 5634 5630 5627 5623 5621 5619 5618 5616 5615 5614 5613 5612 5612 5612 5614 5615 5617 5619 5621 5625 5629 5634 5638 5643 5650 5657 5664 5670 5676 5683
5714 5708 5700 5692 5683 5675 5668 5660 5653 5647 5642 5637 5632 5627 5623 5619 5616 5613 5611 5609 5606 5604 5603 5601 5600 5599 5599 5600 5601 5603 5606 5609 5613 5617 5621 5627 5632 5638 5645 5652 5658 5666 5674
5708 5700 5692 5683 5675 5667 5659 5652 5645 5639 5634 5629 5624 5619 5615 5611 5607 5605 5602 5599 5596 5594 5591 5589 5587 5585 5584 5584 5586 5588 5591 5595 5600 5605 5609 5615 5621 5627 5634 5640 5647 5655 5664
5700 5692 5683 5675 5667 5659 5652 5644 5638 5633 5627 5622 5616 5611 5607 5603 5600 5596 5593 5590 5586 5583 5580 5577 5574 5572 5570 5569 5570 5572 5575 5579 5584 5591 5597 5604 5610 5616 5623 5630 5637 5644 5650
5692 5683 5675 5667 5660 5652 5645 5638 5631 5626 5619 5613 5608 5604 5601 5597 5592 5588 5584 5580 5576 5573 5569 5565 5561 5558 5556 5556 5556 5557 5560 5564 5569 5576 5584 5591 5599 5606 5612 5619 5626 5634 5640
5685 5678 5669 5661 5653 5646 5639 5631 5625 5619 5613 5607 5602 5598 5593 5589 5585 5581 5576 5572 5567 5562 5558 5553 5549 5546 5544 5544 5542 5542 5545 5550 5555 5561 5569 5577 5586 5594 5601 5608 5616 5623 5631
5680 5672 5663 5655 5648 5641 5633 5626 5619 5613 5607 5601 5596 5592 5587 5583 5578 5573 5568 5563 5558 5554 5549 5544 5540 5536 5533 5530 5529 5529 5531 5536 5542 5548 5554 5562 5575 5582 5589 5596 5604 5612 5620
5674 5665 5657 5651 5645 5637 5629 5621 5614 5607 5601 5596 5591 5586 5581 5577 5572 5566 5561 5556 5551 5546 5541 5537 5532 5529 5525 5522 5519 5518 5520 5525 5531 5537 5542 5549 5560 5572 5580 5587 5593 5601 5610
5670 5661 5654 5648 5640 5632 5624 5616 5608 5602 5596 5591 5586 5581 5576 5571 5566 5561 5556 5551 5546 5541 5536 5532 5528 5523 5520 5515 5511 5509 5512 5516 5521 5527 5533 5541 5549 5560 5570 5577 5585 5592 5600
5667 5659 5652 5644 5635 5627 5619 5610 5603 5597 5591 5586 5581 5576 5571 5566 5561 5557 5552 5548 5542 5537 5533 5529 5524 5520 5517 5512 5507 5504 5507 5509 5514 5519 5526 5534 5541 5550 5558 5567 5574 5582 5591
5664 5657 5648 5639 5631 5623 5614 5605 5599 5593 5588 5582 5578 5573 5568 5563 5559 5555 5550 5545 5540 5535 5531 5526 5523 5519 5515 5510 5506 5502 5503 5505 5508 5513 5520 5528 5535 5541 5549 5558 5567 5576 5584
5660 5652 5643 5635 5628 5620 5611 5602 5595 5590 5584 5579 5574 5570 5565 5561 5558 5552 5548 5543 5538 5534 5530 5525 5521 5518 5514 5509 5506 5501 5498 5499 5503 5508 5515 5522 5528 5535 5542 5550 5559 5567 5575
5656 5648 5640 5632 5625 5617 5608 5599 5593 5586 5581 5575 5571 5567 5563 5559 5555 5551 5546 5542 5538 5533 5529 5524 5520 5516 5513 5509 5504 5499 5497 5496 5499 5505 5510 5517 5523 5528 5536 5544 5552 5559 5568
5652 5645 5637 5629 5622 5615 5606 5597 5591 5584 5578 5572 5568 5565 5562 5559 5555 5550 5546 5541 5536 5532 5527 5523 5519 5515 5512 5508 5505 5502 5498 5497 5499 5503 5508 5514 5519 5526 5534 5541 5546 5555 5565
5649 5642 5633 5626 5619 5612 5604 5596 5589 5581 5575 5570 5567 5564 5562 5558 5554 5550 5545 5540 5536 5529 5522 5519 5516 5513 5510 5504 5500 5501 5501 5502 5504 5506 5510 5515 5519 5525 5534 5541 5548 5554 5561
5646 5638 5631 5624 5617 5610 5602 5594 5587 5579 5573 5569 5566 5563 5560 5557 5553 5549 5546 5541 5534 5527 5519 5513 5507 5508 5504 5501 5500 5499 5500 5501 5502 5507 5513 5518 5523 5529 5536 5542 5549 5554 5561